Regional Weather Roundup
Issued by NWS

Home | Current Version | Previous Version | Text Only | Print | Product List | Glossary On
Versions: 1 2 3 4 5 6 7 8 9 10 11 12 13 14 15 16 17 18 19 20 21 22 23 24 25 26 27 28 29 30 31 32 33 34 35 36 37 38 39 40 41 42 43 44 45 46 47 48 49 50
000
ASUS45 KBOU 271107
RWRCO

WEATHER ROUNDUP FOR COLORADO
NATIONAL WEATHER SERVICE DENVER/BOULDER CO
500 AM MDT TUE JUN 27 2017

NOTE: "FAIR" INDICATES FEW OR NO CLOUDS BELOW 12000 FEET WITH NO
SIGNIFICANT WEATHER AND/OR OBSTRUCTIONS TO VISIBILITY.

COZ001>005-013-030-031-271200-
...NORTHWEST COLORADO...

CITY           SKY/WX    TMP DP  RH WIND       PRES   REMARKS
CRAIG          FAIR      48  40  73 SE5       30.06R
HAYDEN         FAIR      54  32  43 E13       30.07S
MEEKER         FAIR      54  35  48 E7        30.07S
RABBIT EARS PA PTSUNNY   54  27  35 S6        30.38F
STEAMBOAT SPGS FAIR      47  35  62 CALM      30.11S
WALDEN         FAIR      45  32  61 E6        30.21S
$$

COZ006>008-011-271200-
...WEST CENTRAL VALLEYS...

CITY           SKY/WX    TMP DP  RH WIND       PRES   REMARKS
GRAND JUNCTION FAIR      67  30  25 E10       29.94S
MONTROSE       FAIR      71  32  23 E13       30.07R
EAGLE          FAIR      49  30  48 S3        30.17S
RIFLE          FAIR      58  30  34 CALM      30.04F
DELTA          FAIR      66  34  30 N10       30.03S
NUCLA          FAIR      70  32  24 S7        30.12R
$$

COZ017>023-064>068-271200-
...SOUTHWEST COLORADO...

CITY           SKY/WX    TMP DP  RH WIND       PRES   REMARKS
DURANGO        FAIR      56  37  49 E8        30.22S
CORTEZ         FAIR      60  40  47 CALM      30.13R
PAGOSA SPRINGS FAIR      50  34  53 CALM      30.32F
TELLURIDE      MOCLDY    62  33  33 NE3       30.37S
WOLF CREEK PAS FAIR      41  34  75 S15       30.62S
$$

COZ009-010-012-014-032>034-037-058>063-271200-
...CENTRAL COLORADO...

CITY           SKY/WX    TMP DP  RH WIND       PRES   REMARKS
ASPEN          FAIR      57  31  37 SW7       30.19F
BUENA VISTA    FAIR      44  35  68 W5        30.30S
COPPER MTN     FAIR      54  25  32 S16       30.52S
BERTHOUD PASS  FAIR      45  32  61 W29       30.52F
COTTONWOOD PAS FAIR      54  32  43 N7        30.40S
GUNNISON       FAIR      51  34  52 N9        30.31R
KREMMLING      NOT AVBL
LEADVILLE      FAIR      36  31  82 NE7       30.38S
MONARCH PASS   FAIR      43  30  61 SW21      30.64S
SALIDA         FAIR      53  37  54 SE7       30.33F
SUNLIGHT       MOCLDY    54  25  32 SW10G18   30.45R
WILKERSON PASS FAIR      46  30  53 SW13G20   30.50F
$$

COZ069>075-271200-
...SAN LUIS VALLEY/SANGRE DE CRISTO MOUNTAINS...

CITY           SKY/WX    TMP DP  RH WIND       PRES   REMARKS
ALAMOSA        FAIR      45  39  79 NE5       30.30R
DEL NORTE      FAIR      45  39  79 N3        30.33R
LA VETA PASS   FAIR      46  34  61 MISG      30.54S
SAGUACHE       FAIR      50  34  53 N6        30.33S
$$

COZ035-036-038>040-271200-
...NORTHERN COLORADO FRONT RANGE...

CITY           SKY/WX    TMP DP  RH WIND       PRES   REMARKS
DENVER INTL AP MOCLDY    63  46  54 CALM      30.02F
DMNS CITY PARK   N/A     60  45  59 N5        30.01S
AURORA         MOCLDY    66  41  40 S13       30.03S
FRONT RANGE AP FAIR      70  39  32 S17       30.03S
ERIE MUNI ARPT FAIR      53  50  87 CALM      30.01F
BOULDER MUN AP FAIR      59  46  63 CALM      30.01F
CENTENNIAL     FAIR      64  41  42 S10       30.05F
BROOMFIELD     FAIR      59  52  77 CALM      30.03F
FORT COLLINS   FAIR      56  53  90 CALM      30.01F
LONGMONT       FAIR      54  48  80 W3        30.02F
$$

COZ041-046-047-076>085-087-088-271200-
...PIKES PEAK/PALMER DIVIDE AND SOUTHERN FOOTHILLS...

CITY           SKY/WX    TMP DP  RH WIND       PRES   REMARKS
COLO. SPRINGS  FAIR      54  43  66 NE8       30.12F
A. F. ACADEMY  FAIR      47  43  85 N8        30.14F
SCHRIEVER AFB  FAIR      55  42  63 W9        30.13F
CHEYENNE MTN   FAIR      61  36  39 S3        30.11F
ELLICOTT       FAIR     N/A N/A N/A CALM      30.11F
FALCON           N/A     53  38  56 W7        30.17F
FORT CARSON    FAIR      54  45  72 N9        30.09F
LIMON          CLOUDY    56  56 100 SE7       30.09S FOG
MONUMENT HILL  FAIR      55  37  50 S12G18    30.17S
CANON CITY     CLEAR     63  45  51 W12       30.07F
WALSENBURG     FAIR      61  41  48 SW10      30.14R
TRINIDAD       FAIR      63  52  67 SW20      30.11F
$$

COZ042>045-048>051-090-091-271200-
...NORTHEAST COLORADO...

CITY           SKY/WX    TMP DP  RH WIND       PRES   REMARKS
GREELEY ARPT   FAIR      57  54  89 NE5       29.99F
AKRON          MOCLDY    60  57  89 SE20G25   30.03F
BURLINGTON     CLOUDY    60  59  96 S10       30.06S
WRAY           FAIR     N/A N/A N/A SE7       30.04F
YUMA           CLOUDY    59  52  77 SE12G20   30.04F
STERLING       CLOUDY    61  59  94 S10G17    29.99F
HOLYOKE        NOT AVBL
FORT MORGAN    FAIR      59  56  87 SE12G18   30.00F
$$

COZ086-089-092>099-271200-
...SOUTHEAST COLORADO...

CITY           SKY/WX    TMP DP  RH WIND       PRES   REMARKS
PUEBLO         FAIR      56  44  64 E3        30.03F
LA JUNTA       FAIR      60  49  66 SE8       30.03F
LAMAR          FAIR      55  53  93 CALM      30.01F FOG
SPRINGFIELD      N/A     56  45  66 SW6       30.07F
$$



USA.gov is the U.S. government's official web portal to all federal, state and local government web resources and services.